User: anonymous   Login
Location: Unspecified
(0.0000°N, 0.0000°E)
Time: 01:29:50
(UTC+02:00)
Language:

AO-7 - Orbit

View from above orbital plane
View from above orbital plane
View from above satellite
View from above satellite

Ground track
Ground track

The orbit data is extracted from the following two-line orbital elements,

1  7530U 74089B   17115.88486538 -.00000052 +00000-0 -50834-4 0  9991
2  7530 101.6256 085.6108 0012482 064.3558 350.0409 12.53626631942072
Epoch (UTC): 25 April 2017 21:14:12
Eccentricity: 0.0012482
inclination: 101.6256°
perigee height: 1439 km
apogee height: 1459 km
right ascension of ascending node: 85.6108°
argument of perigee: 64.3558°
revolutions per day: 12.53626631
mean anomaly at epoch: 350.0409°
orbit number at epoch: 94207

The dashed part of the orbit path shows where the satellite is in the earth's shadow,  

DLR